Total_Precipitation_Accumulation
1.26 1.23 1.09 1.04 0.95 0.81 0.77 0.72 0.67 0.63 0.57 0.50 0.43 0.38 0.36 0.34 0.30 0.29 0.26 0.24 0.30 0.50 0.76 0.87 0.90 0.95 1.00 1.02 1.04 0.99 0.92 0.87 0.79 0.70 0.63 0.60 0.62 0.63 0.65 0.67 0.67 0.68 0.70
1.39 1.27 1.16 1.11 1.04 0.88 0.77 0.78 0.72 0.68 0.63 0.58 0.51 0.44 0.39 0.36 0.33 0.31 0.28 0.26 0.29 0.37 0.56 0.75 0.87 1.02 1.14 1.21 1.21 1.16 1.08 1.04 0.99 0.88 0.77 0.68 0.66 0.65 0.66 0.69 0.68 0.69 0.72
1.55 1.48 1.28 1.15 1.10 1.08 1.02 0.96 0.91 0.78 0.66 0.60 0.57 0.53 0.48 0.44 0.39 0.35 0.31 0.28 0.29 0.31 0.40 0.59 0.79 0.98 1.12 1.24 1.30 1.31 1.26 1.17 1.14 1.08 0.96 0.84 0.74 0.70 0.69 0.71 0.72 0.74 0.75
1.77 1.68 1.55 1.35 1.27 1.28 1.24 1.13 1.00 0.93 0.76 0.65 0.58 0.55 0.50 0.47 0.42 0.38 0.34 0.28 0.26 0.27 0.33 0.44 0.58 0.77 1.00 1.16 1.30 1.37 1.35 1.25 1.18 1.15 1.06 0.96 0.90 0.86 0.85 0.84 0.83 0.83 0.85
1.97 1.80 1.61 1.52 1.52 1.47 1.35 1.26 1.11 1.07 0.99 0.81 0.68 0.61 0.56 0.51 0.44 0.40 0.37 0.33 0.29 0.26 0.27 0.34 0.41 0.48 0.67 0.93 1.18 1.41 1.51 1.45 1.35 1.27 1.21 1.13 1.07 1.06 1.04 1.03 1.01 1.00 1.04
2.30 2.13 1.81 1.66 1.67 1.66 1.58 1.46 1.37 1.26 1.16 1.10 0.95 0.74 0.60 0.55 0.50 0.44 0.39 0.36 0.33 0.30 0.28 0.29 0.32 0.34 0.41 0.61 0.91 1.23 1.52 1.63 1.55 1.45 1.38 1.32 1.28 1.25 1.25 1.27 1.27 1.27 1.28
2.37 2.44 2.21 1.99 1.91 1.84 1.81 1.76 1.73 1.64 1.43 1.35 1.28 1.01 0.74 0.60 0.54 0.48 0.44 0.41 0.38 0.37 0.37 0.35 0.35 0.35 0.39 0.50 0.66 0.83 1.12 1.43 1.59 1.61 1.55 1.49 1.44 1.45 1.51 1.53 1.52 1.50 1.50
2.40 2.45 2.51 2.35 2.09 2.01 2.01 2.00 1.90 1.77 1.67 1.58 1.48 1.39 1.17 0.93 0.69 0.56 0.53 0.49 0.44 0.42 0.42 0.42 0.43 0.43 0.43 0.49 0.53 0.59 0.73 1.02 1.35 1.58 1.64 1.61 1.56 1.56 1.66 1.78 1.86 1.85 1.81
2.52 2.44 2.38 2.42 2.34 2.20 2.11 2.14 2.17 2.13 1.99 1.86 1.70 1.72 1.49 1.18 0.91 0.70 0.62 0.61 0.61 0.57 0.51 0.50 0.52 0.53 0.53 0.51 0.49 0.50 0.54 0.73 1.02 1.41 1.70 1.83 1.82 1.85 1.94 2.02 2.08 2.19 2.18
2.59 2.50 2.48 2.45 2.42 2.35 2.22 2.22 2.30 2.32 2.32 2.21 2.03 1.82 1.60 1.32 1.21 0.98 0.75 0.71 0.78 0.79 0.74 0.66 0.62 0.62 0.61 0.60 0.59 0.59 0.61 0.67 0.92 1.31 1.77 2.08 2.21 2.35 2.52 2.56 2.63 2.71 2.65
2.70 2.58 2.51 2.51 2.50 2.43 2.37 2.35 2.36 2.38 2.38 2.34 2.24 2.04 1.86 1.56 1.33 1.24 1.03 0.87 0.88 0.86 0.88 0.83 0.76 0.70 0.68 0.66 0.65 0.71 0.81 0.85 1.03 1.33 1.78 2.27 2.60 2.81 2.99 3.08 3.16 3.19 3.18
2.55 2.47 2.48 2.44 2.43 2.39 2.29 2.26 2.28 2.30 2.32 2.24 2.16 2.03 1.91 1.73 1.51 1.43 1.29 1.07 1.04 0.99 0.99 0.97 0.92 0.86 0.80 0.74 0.73 0.88 0.90 0.94 1.09 1.35 1.73 2.19 2.53 2.78 2.97 3.14 3.26 3.30 3.37
2.28 2.23 2.27 2.31 2.33 2.30 2.28 2.22 2.18 2.10 2.15 2.18 2.10 1.96 1.82 1.59 1.46 1.53 1.54 1.34 1.17 1.03 1.01 1.01 0.98 0.98 0.98 0.97 0.98 1.10 1.03 1.07 1.14 1.35 1.69 2.05 2.17 2.23 2.32 2.49 2.73 2.87 2.99
2.08 2.09 2.13 2.17 2.23 2.29 2.27 2.27 2.20 2.08 2.03 2.00 2.00 1.95 1.88 1.70 1.51 1.47 1.52 1.59 1.53 1.28 1.11 1.00 0.97 1.06 1.14 1.18 1.25 1.35 1.16 1.27 1.26 1.30 1.49 1.70 1.77 1.72 1.74 1.90 2.13 2.33 2.49
1.97 2.01 2.11 2.12 2.08 2.08 2.08 2.12 2.13 2.01 1.91 1.86 1.80 1.82 1.82 1.73 1.65 1.54 1.51 1.64 1.89 1.85 1.48 1.17 1.14 1.19 1.26 1.30 1.40 1.28 1.09 1.28 1.33 1.30 1.35 1.38 1.39 1.38 1.40 1.50 1.63 1.79 1.93
1.84 1.82 1.87 1.96 1.97 1.96 1.98 2.00 1.93 1.84 1.78 1.67 1.58 1.61 1.65 1.65 1.69 1.68 1.67 1.69 1.82 2.00 1.84 1.35 1.18 1.19 1.25 1.28 1.39 1.23 1.12 1.31 1.24 1.22 1.22 1.22 1.19 1.16 1.17 1.23 1.35 1.47 1.61
1.72 1.66 1.69 1.70 1.69 1.69 1.73 1.81 1.79 1.74 1.73 1.66 1.56 1.49 1.43 1.47 1.60 1.65 1.72 1.75 1.79 1.90 1.91 1.50 1.22 1.15 1.18 1.16 1.14 1.07 1.03 1.03 1.00 1.13 1.09 1.06 1.07 1.06 1.04 1.07 1.16 1.26 1.36
1.62 1.59 1.61 1.64 1.60 1.55 1.54 1.57 1.59 1.59 1.63 1.63 1.61 1.59 1.51 1.48 1.58 1.66 1.74 1.76 1.72 1.69 1.71 1.55 1.28 1.13 1.06 0.99 0.97 0.94 0.91 0.90 0.88 1.05 1.04 1.00 1.00 0.98 0.93 0.95 1.01 1.09 1.18
1.54 1.57 1.53 1.54 1.54 1.54 1.54 1.52 1.51 1.53 1.52 1.54 1.60 1.66 1.62 1.63 1.65 1.62 1.59 1.57 1.53 1.46 1.42 1.37 1.22 1.09 1.03 0.99 1.00 0.93 0.86 0.83 0.80 0.90 0.94 0.93 0.97 0.99 0.93 0.92 0.97 1.00 1.01
1.40 1.47 1.46 1.43 1.46 1.50 1.54 1.54 1.56 1.62 1.63 1.61 1.62 1.65 1.65 1.66 1.62 1.60 1.56 1.46 1.41 1.40 1.37 1.35 1.27 1.15 1.06 0.99 1.02 0.99 0.92 0.83 0.78 0.74 0.83 0.84 0.90 0.98 0.97 0.89 0.82 0.81 0.80
1.33 1.38 1.41 1.39 1.40 1.48 1.58 1.60 1.58 1.63 1.72 1.74 1.69 1.63 1.58 1.66 1.65 1.58 1.53 1.49 1.48 1.52 1.51 1.49 1.40 1.24 1.07 0.97 0.92 0.86 0.88 0.87 0.83 0.76 0.78 0.78 0.78 0.76 0.77 0.83 0.85 0.84 0.87
1.35 1.39 1.45 1.48 1.48 1.52 1.81 1.87 1.77 1.70 1.71 1.69 1.63 1.54 1.48 1.54 1.52 1.55 1.56 1.54 1.59 1.65 1.72 1.67 1.49 1.25 0.97 0.84 0.83 0.92 1.02 1.12 1.03 0.76 0.77 0.75 0.71 0.74 0.70 0.72 0.87 0.92 0.94
1.43 1.51 1.58 1.63 1.65 1.71 1.84 1.74 1.73 1.58 1.53 1.51 1.43 1.35 1.28 1.25 1.29 1.15 1.27 1.40 1.42 1.51 1.55 1.47 1.33 1.06 0.92 0.87 1.02 1.16 1.12 1.11 0.95 0.76 0.89 0.93 0.81 0.76 0.71 0.77 0.92 0.87 0.87
1.52 1.64 1.73 1.74 1.69 1.70 1.69 1.50 1.48 1.36 1.27 1.22 1.17 1.14 1.11 1.07 1.07 1.11 1.12 1.20 1.14 1.09 1.05 1.00 0.98 0.93 0.93 0.99 1.15 1.32 1.29 1.22 1.01 0.86 0.91 1.03 0.86 0.79 0.71 0.76 0.90 0.86 0.89
1.50 1.56 1.59 1.55 1.44 1.38 1.38 1.23 1.16 1.06 1.09 1.06 0.98 0.98 1.00 0.95 1.11 1.29 1.26 1.22 1.07 0.96 0.98 1.01 1.06 1.08 1.14 1.16 1.18 1.32 1.43 1.53 1.36 1.01 0.88 0.93 0.82 0.76 0.75 0.73 0.81 0.91 0.87
1.23 1.15 1.10 1.07 1.01 0.94 1.00 1.03 1.04 0.91 0.91 0.92 0.90 0.91 1.03 1.03 1.19 1.33 1.24 1.23 1.12 0.94 0.94 0.97 0.95 0.94 0.92 0.98 1.14 1.16 1.38 1.74 1.57 1.24 0.88 0.97 0.98 1.03 1.22 0.85 0.74 0.76 0.78